Accueil
METAR-TAF:

METAR-TAF

Aéroports :

Colonel James Jabara Airport

Wichita, Kansas, États-Unis

latitude: 37-44-59N, longitude: 097-13-08W, altitude: 432 m

Observation

Le bulletin a été fait il y a 53 minutes, à 10:54 UTC
Vent 6 kt de nord
Température 9°C
Humidité 100%
Pression 1024 hPa
Visibilité: 16.1 km
Ciel clair

METAR: KAAO 221054Z AUTO 01006KT 10SM CLR 09/09 A3025 RMK AO2 SLP241 T00890089

Heure: 06:47 (11:47 UTC)


TAF: absent

Observations et prévisions météorologiques de plus de 4000 aéroports (messages METAR et TAF).

Les stations disponibles sont représentées par des disques jaunes et rouges sur la carte.

Passer la souris dessus pour voir le nom de la station.

Cliquer dessus pour voir les observations et prévisions météorologiques.

Pour changer de carte: cliquez sur les boutons verts avec une croix noire pour zoomer, sur le bouton vert avec un tiret pour effectuer un zoom arrière, ou sur les flèches vertes pour les cartes adjacentes.


METAR-TAF: